Regional Weather Roundup
Issued by NWS

Home | Current Version | Previous Version | Text Only | Print | Product List | Glossary Off
Versions: 1 2 3 4 5 6 7 8 9 10 11 12 13 14 15 16 17 18 19 20 21 22 23 24 25 26 27 28 29 30 31 32 33 34 35 36 37 38 39 40 41 42 43 44 45 46 47 48 49 50

000
ASUS43 KOAX 052210
RWRNE

WEATHER ROUNDUP FOR NEBRASKA
NATIONAL WEATHER SERVICE OMAHA NE
500 PM CDT SUN JUL 05 2015

NOTES: SATELLITE DATA IS BEING USED TO AUGMENT CLOUD COVER ABOVE
       12000 FEET.
       "FAIR" INDICATES FEW OR NO CLOUDS BELOW 12,000 FEET WITH NO
       SIGNIFICANT WEATHER AND/OR OBSTRUCTIONS TO VISIBILITY.

  * THESE STATIONS DO NOT REPORT WEATHER SUCH AS RAIN...SNOW OR FOG.

NEZ001>004-019>022-054>056-052300-
NEBRASKA PANHANDLE

CITY           SKY/WX    TMP DP  RH WIND       PRES   REMARKS
SCOTTSBLUFF    CLOUDY    84  64  50 N20G29    29.86R
ALLIANCE       PTSUNNY   85  64  49 N13       29.83R
CHADRON        PTSUNNY   86  67  52 N20G33    29.85R
KIMBALL          N/A    N/A N/A N/A MISG        N/A
SIDNEY         CLOUDY    90  58  33 NW8       29.86S
$$

NEZ057>060-069>072-079>082-052300-
SOUTHWEST NEBRASKA

CITY           SKY/WX    TMP DP  RH WIND       PRES   REMARKS
NORTH PLATTE   PTSUNNY   96  66  37 SE8       29.76F HX  99
IMPERIAL       MOSUNNY  101  57  23 SE7       29.76F HX 100
LEXINGTON      SUNNY     99  64  32 S9        29.74F HX 101
MCCOOK         MOSUNNY  103  54  19 S13       29.71F HX 101
OGALLALA       MOSUNNY   96  62  32 SE9       29.77S HX  96
$$

NEZ005>010-023>029-035>040-094-052300-
NORTH CENTRAL NEBRASKA

CITY           SKY/WX    TMP DP  RH WIND       PRES   REMARKS
VALENTINE      MOSUNNY   94  65  38 SE9       29.75F HX  96
AINSWORTH      MOSUNNY   93  69  44 S13G18    29.76F HX  98
BROKEN BOW     MOSUNNY   93  70  46 S14G26    29.77F HX  99
O`NEILL        MOSUNNY   90  73  57 S13       29.78S HX  98
ORD            MOSUNNY   94  70  45 S14G21    29.75F HX 100
THEDFORD       SUNNY     92  69  46 S10       29.79F HX  97
$$

NEZ041-046>049-061>064-073>077-083>087-052300-
SOUTH CENTRAL NEBRASKA

CITY           SKY/WX    TMP DP  RH WIND       PRES   REMARKS
GRAND ISLAND   SUNNY     95  73  48 SE14G22   29.76F HX 104
AURORA         SUNNY     94  73  50 SE15      29.76F HX 102
HASTINGS       SUNNY     97  68  38 S18G25    29.75F HX 102
HEBRON         SUNNY     95  64  36 S17G25    29.78F HX  97
HOLDREGE       SUNNY     99  60  27 SW15      29.75F HX  99
KEARNEY *      SUNNY     99  70  39 SE14      29.74F HX 105
YORK           SUNNY     91  75  59 S15G22    29.78F HX 102
$$

NEZ011>018-030>034-042>045-052300-
NORTHEAST NEBRASKA

CITY           SKY/WX    TMP DP  RH WIND       PRES   REMARKS
NORFOLK        MOSUNNY   89  76  65 SE18      29.78F HX 100
ALBION         MOSUNNY   89  73  58 S14       29.79S HX  97
BLAIR          MOSUNNY   88  72  58 S17G23    29.82F HX  95
COLUMBUS *     SUNNY     90  73  58 S15       29.80S HX  98
FREMONT        MOSUNNY   90  73  58 SE15G22   29.81S HX  98
TEKAMAH        MOSUNNY   91  74  57 SE18G28   29.80F HX 100
WAYNE          PTSUNNY   83  76  77 S14       29.81S HX  91
$$

NEZ050>053-065>068-078-088>093-052300-
SOUTHEAST NEBRASKA

CITY           SKY/WX    TMP DP  RH WIND       PRES   REMARKS
LINCOLN        SUNNY     92  73  53 S17G28    29.80F HX 100
OMAHA EPPLEY   PTSUNNY   90  74  59 SE22G30   29.81F HX  99
BEATRICE       SUNNY     91  74  57 S16G22    29.81F HX 100
FALLS CITY     MOSUNNY   91  73  55 S14G25    29.85S HX  99
NEBRASKA CITY  SUNNY     90  68  49 S17       29.84F HX  93
PLATTSMOUTH    MOSUNNY   88  72  58 SE15G22   29.83F HX  95
$$

NEZ044-045-051>053-067-052300-
OMAHA AREA

CITY           SKY/WX    TMP DP  RH WIND       PRES   REMARKS
OMAHA EPPLEY   PTSUNNY   90  74  59 SE22G30   29.81F HX  99
BLAIR          MOSUNNY   88  72  58 S17G23    29.82F HX  95
FREMONT        MOSUNNY   90  73  58 SE15G22   29.81S HX  98
MILLARD        SUNNY     89  76  65 SE16G22   29.81F HX 101
OFFUTT AFB     MOSUNNY   90  75  60 SE16      29.81F HX 100
PLATTSMOUTH    MOSUNNY   88  72  58 SE15G22   29.83F HX  95
WAHOO          FAIR      92  74  56 S18       29.80F HX 101
$$


USA.gov is the U.S. government's official web portal to all federal, state and local government web resources and services.